GLOBALSTAR M015 [-]

Last updated on Fri Dec 29 2023 00:02:56 GMT+0000 (Coordinated Universal Time)

1 25308U 98023C 23361.70636927 -.00000067 00000+0 15026-3 0 9995 2 25308 51.9784 188.5829 0012076 191.7119 248.7822 11.48857364132309

Satellite not in orbit

GLOBALSTAR M015 [-]